Theta_e
322 320 321 319 321 322 324 324 324 322 321 322 322 321 321 322 321 322 325 321 322 322 325 324 324 325 328 333 338 337 334 335 336 338 338 338 336 335 334 331 329 330 331 334
320 321 321 319 320 322 322 323 322 322 322 322 321 322 321 318 320 323 323 325 325 324 326 327 327 326 325 325 327 335 335 336 336 338 339 340 339 337 337 336 333 331 331 333
321 323 320 320 320 321 321 322 323 323 322 321 320 321 322 321 321 323 324 324 325 325 326 326 326 325 325 325 326 326 327 332 336 337 339 341 341 339 339 338 337 336 333 333
320 322 322 321 320 319 320 319 321 321 324 325 321 324 320 320 319 320 322 323 324 325 323 323 324 326 325 326 326 325 326 329 334 337 339 340 340 340 339 339 339 338 337 335
323 321 320 321 321 320 321 320 321 323 323 321 321 321 319 319 322 321 320 324 325 325 325 323 323 323 324 325 325 325 325 327 329 334 337 339 341 341 341 340 340 340 339 338
319 320 319 320 320 319 321 323 320 318 319 324 321 320 321 321 323 321 321 324 326 326 326 326 326 325 324 324 324 325 326 327 329 332 335 336 338 341 341 341 341 341 340 340
320 319 318 320 320 318 320 321 324 322 323 326 320 320 321 320 320 320 321 324 326 326 326 327 328 329 329 328 326 325 326 327 329 331 333 335 337 340 341 341 340 341 341 340
319 319 319 318 320 319 318 319 324 327 323 323 321 324 323 319 321 323 323 324 325 327 327 327 327 327 327 327 327 328 329 330 331 333 335 338 339 339 340 340 341 340 338 337
317 318 317 316 318 319 319 320 320 321 321 322 321 320 320 319 318 321 322 324 325 325 325 325 326 327 327 327 327 327 326 326 326 327 328 329 329 330 326 329 329 328 329 331
317 318 319 319 318 317 318 319 323 321 326 327 323 322 323 322 321 320 319 320 322 325 321 321 323 324 324 326 327 328 327 327 327 327 326 325 323 323 323 323 324 325 325 325
318 317 318 320 319 319 320 320 321 321 320 323 323 323 319 321 320 321 319 321 322 319 318 319 320 320 319 320 322 322 327 328 328 327 324 322 323 322 322 323 324 325 325 324
317 319 318 319 319 318 319 318 320 321 321 319 319 320 317 318 319 319 320 319 318 317 319 321 323 323 324 324 321 322 322 324 328 328 327 323 323 323 322 323 324 325 325 325
318 318 319 319 317 317 319 318 320 319 317 320 320 320 317 318 319 318 318 317 317 319 321 323 323 324 325 326 325 324 323 324 325 328 329 327 324 324 322 323 324 325 325 325
319 319 317 318 316 317 319 319 318 320 318 320 318 320 319 319 318 316 318 317 319 322 322 323 324 324 325 325 325 324 324 324 325 325 328 329 328 327 326 324 324 326 326 326
319 321 319 317 317 318 318 318 317 319 321 320 320 317 316 316 315 316 316 318 321 322 322 323 323 323 324 325 324 324 325 324 324 324 326 328 329 329 329 329 328 328 328 328
318 321 318 319 318 318 320 318 315 314 314 315 315 315 313 315 315 315 318 320 321 322 320 320 321 322 322 322 323 323 325 325 325 324 323 323 323 324 326 329 331 331 331 331
319 320 318 321 319 319 321 319 315 315 315 315 317 316 313 316 317 317 318 319 319 315 316 316 317 318 319 320 320 321 322 323 324 324 325 325 324 324 325 328 331 332 332 330
319 318 315 322 317 321 319 317 317 318 316 315 316 315 316 317 317 317 316 315 314 314 314 315 315 315 315 316 317 317 318 319 320 321 322 322 323 324 324 326 328 330 331 330
315 316 315 320 317 317 317 317 316 317 316 315 315 317 318 319 316 314 314 314 314 313 314 314 314 315 315 315 316 316 317 318 317 317 316 316 317 318 318 319 320 321 322 324
315 316 318 313 319 324 318 316 317 315 316 314 317 317 317 317 318 315 316 315 315 315 315 315 315 315 316 316 316 316 316 315 315 314 313 313 313 313 314 314 315 316 317 318
316 313 315 311 313 312 313 316 317 317 316 318 318 317 316 316 315 315 314 312 311 310 310 310 310 311 310 308 308 310 311 312 312 312 312 312 312 312 312 312 312 313 314 315
317 317 315 313 313 316 313 317 316 315 316 318 317 316 314 313 312 312 311 311 310 310 309 309 309 309 307 306 305 305 307 309 309 310 310 308 308 309 309 308 309 309 311 313
317 317 316 316 315 313 315 315 316 317 316 314 312 310 310 310 310 310 311 310 309 310 309 309 308 307 306 306 305 305 308 308 307 307 307 307 307 307 307 306 306 307 308 308
314 314 316 315 316 312 311 312 314 315 313 312 311 310 310 310 310 310 309 308 307 309 309 307 306 306 305 304 305 305 305 305 305 305 303 304 305 304 305 305 304 304 303 302
313 314 315 315 312 310 311 311 311 311 311 311 310 310 309 309 309 308 308 309 310 309 307 306 305 303 303 303 303 304 304 303 303 303 302 302 302 302 302 302 302 300 298 298
310 313 316 317 312 315 312 311 311 311 311 311 311 309 309 308 308 308 310 310 308 305 304 303 302 301 301 300 299 299 300 300 300 300 299 299 300 300 300 300 300 300 300 300
Wind_Speed
4 3 8 10 7 5 3 3 5 5 11 4 7 9 14 24 16 20 17 12 16 20 20 26 29 31 41 45 49 49 45 44 44 43 42 41 40 38 36 36 36 35 34 35
1 10 9 6 5 6 6 5 7 7 5 5 10 14 13 8 10 10 13 18 17 16 22 26 28 27 29 31 39 51 50 46 46 45 46 45 43 42 39 36 36 35 35 36
9 7 5 6 5 6 5 5 4 7 3 3 7 9 6 5 7 11 9 11 15 19 25 30 34 31 29 31 31 38 40 46 49 49 49 48 48 46 44 41 37 35 35 36
7 8 8 6 7 8 10 8 12 8 2 3 3 5 6 4 8 4 13 12 16 18 19 20 26 25 28 29 28 31 36 40 47 51 51 52 52 52 48 45 40 37 34 34
9 8 6 7 8 10 7 5 7 4 3 2 3 1 7 4 6 7 11 21 18 18 20 18 11 13 16 25 28 31 35 38 41 47 50 50 52 53 51 47 43 39 34 32
6 5 7 9 4 7 0 1 5 4 2 2 7 6 5 4 4 6 8 18 15 19 21 20 18 12 10 15 20 25 31 36 39 41 43 44 46 50 51 48 44 40 37 35
13 9 0 4 5 6 4 5 3 2 1 6 3 4 8 6 6 5 6 12 12 14 16 19 20 18 15 11 10 15 20 24 27 31 34 36 38 42 43 43 42 40 39 40
10 12 15 9 20 8 8 10 5 7 4 4 4 6 6 7 8 8 5 8 10 8 10 12 12 12 13 12 11 8 10 14 17 21 26 27 28 30 32 34 33 33 35 38
7 8 4 6 5 15 6 6 10 5 2 2 4 6 9 5 6 8 7 12 15 15 16 17 14 13 13 13 15 16 17 17 20 23 22 23 24 26 28 25 26 28 29 34
8 3 6 2 5 10 10 6 4 1 6 6 5 5 6 4 6 5 4 7 15 12 22 22 22 22 21 22 23 24 25 25 25 23 24 24 25 25 26 25 24 24 22 23
6 4 3 5 8 11 5 5 3 5 5 6 3 6 8 13 9 6 5 8 10 17 23 24 24 24 28 27 25 28 34 33 32 29 28 27 28 28 27 29 27 24 20 19
8 5 5 8 3 4 5 9 10 5 7 3 3 6 3 7 4 4 7 10 19 21 22 25 27 27 28 30 35 31 31 35 40 37 35 33 34 33 34 34 31 26 24 22
10 5 2 6 5 1 5 6 11 3 4 9 6 6 1 3 4 5 7 22 25 24 24 25 24 24 28 27 30 30 28 31 35 42 42 39 39 38 38 39 34 30 27 24
17 5 9 15 8 4 9 8 10 9 3 6 7 3 4 5 5 8 20 19 20 22 26 25 22 23 27 28 25 23 27 25 27 31 41 42 42 42 42 41 38 33 30 28
7 7 6 7 6 4 4 10 11 12 19 8 9 8 7 9 6 7 12 13 15 19 21 21 24 25 25 24 23 19 19 20 23 26 30 38 42 44 44 42 41 38 35 32
3 5 7 5 7 7 4 5 8 5 4 4 4 6 8 6 9 6 10 8 12 13 13 15 18 21 24 25 25 24 20 17 18 21 23 25 27 31 32 30 36 39 37 34
7 5 3 5 1 5 2 11 8 6 4 8 7 8 6 4 1 4 5 7 7 7 11 15 18 20 22 24 25 27 27 25 22 18 18 19 22 24 25 24 26 32 34 33
7 6 3 8 2 3 8 2 9 13 5 8 4 3 3 3 2 3 2 3 2 7 12 14 16 18 20 21 23 24 24 25 25 23 22 22 22 22 23 23 23 24 27 29
5 6 3 6 7 5 5 3 7 7 8 7 8 4 5 8 16 6 6 6 7 9 10 12 15 17 20 24 23 24 22 25 26 25 24 22 22 23 24 24 25 27 27 29
4 3 5 3 6 17 2 8 12 5 6 9 11 8 8 13 4 3 6 2 4 8 13 17 21 23 24 25 25 26 27 27 26 26 26 25 24 22 21 20 21 23 26 27
3 1 5 2 4 6 6 4 12 6 6 5 11 13 13 5 5 10 2 2 5 8 13 18 18 17 17 19 21 21 21 22 21 21 22 25 26 27 28 28 28 27 27 29
8 6 4 3 1 10 9 1 9 5 5 12 15 12 12 9 5 1 3 6 8 11 13 13 15 14 20 23 25 24 22 21 23 22 19 18 19 20 21 24 25 25 26 26
18 9 5 8 6 1 4 3 7 11 16 12 17 11 8 5 2 5 6 7 13 12 12 11 12 14 17 22 22 21 21 22 23 23 21 20 20 21 22 26 26 25 24 23
3 4 5 4 2 4 13 16 16 17 20 18 12 7 4 2 2 2 4 8 12 14 12 12 13 19 20 19 19 20 21 22 23 24 29 27 23 24 23 24 22 15 10 6
4 7 7 1 6 14 8 15 16 15 13 10 6 3 2 1 2 6 9 12 11 11 10 12 15 16 16 17 17 17 17 19 21 23 23 22 18 17 12 11 5 6 10 8
5 6 6 8 16 6 8 20 14 11 8 5 3 6 7 7 5 5 14 13 8 6 8 11 13 14 16 17 18 19 19 19 19 20 20 18 14 11 11 10 12 13 12 16
Wind_Direction
174 164 220 205 194 226 277 207 256 255 273 288 258 276 277 284 287 284 286 250 234 241 262 261 253 253 253 251 251 245 239 241 240 240 240 239 240 242 243 245 244 244 243 244
53 238 233 179 201 219 253 281 273 283 262 177 302 288 273 284 270 275 296 302 294 274 268 268 269 258 248 247 246 249 245 241 245 244 245 243 244 244 246 249 250 248 244 244
191 213 167 167 198 203 234 215 234 237 337 269 301 303 325 314 304 322 328 299 293 286 280 273 268 263 258 240 242 250 253 245 243 246 244 243 245 246 247 248 251 253 250 248
224 221 219 228 232 163 262 211 238 261 62 202 38 285 311 337 316 288 316 325 327 325 319 289 268 256 241 235 244 246 248 250 246 246 246 245 246 246 250 251 254 256 257 258
230 172 176 199 226 171 231 214 214 221 204 125 184 71 268 322 324 332 321 345 346 348 352 349 328 275 231 239 240 240 242 246 247 246 247 248 247 249 251 253 257 260 263 265
233 212 171 195 182 171 57 96 45 46 79 300 217 154 277 222 228 298 312 354 356 359 11 17 19 5 299 266 252 245 243 244 246 248 250 253 253 251 251 253 257 263 270 270
233 227 157 183 245 255 139 68 315 342 325 224 180 137 245 238 250 233 284 344 356 358 12 19 19 24 18 357 303 274 264 259 260 260 259 259 258 255 257 260 263 265 268 269
203 261 189 203 210 186 188 159 174 210 198 237 120 227 249 206 218 277 313 359 4 351 356 0 3 0 355 350 342 315 285 269 261 259 258 258 258 259 260 260 261 262 266 270
171 249 229 185 178 174 185 179 198 108 16 33 221 279 301 214 248 257 343 2 359 10 5 350 332 320 317 312 306 298 290 282 282 272 262 254 251 250 254 256 254 257 266 271
204 265 204 163 125 198 183 163 90 339 186 223 259 256 216 245 204 215 284 349 4 2 358 357 348 340 328 308 293 278 269 264 269 270 265 256 248 251 253 247 247 257 271 278
146 144 251 128 194 177 151 214 191 141 151 178 221 253 215 223 238 253 289 340 14 352 338 339 335 321 309 305 299 301 273 262 261 263 261 251 251 250 248 242 251 257 265 275
195 152 198 207 162 162 166 195 176 153 226 218 183 255 255 226 248 219 295 338 344 344 340 336 332 326 317 309 297 298 291 275 261 257 257 255 254 252 249 246 252 255 261 265
172 198 138 314 347 164 196 198 203 124 81 208 161 257 276 218 236 249 312 338 339 336 340 337 329 320 316 312 295 296 292 291 279 259 255 255 257 257 254 250 253 254 258 260
150 159 194 221 212 189 180 181 192 184 161 202 220 216 286 246 248 317 326 332 331 335 336 336 335 327 320 318 315 300 294 299 301 284 262 261 264 266 266 259 256 257 260 260
156 191 201 235 222 207 220 207 172 193 223 189 238 216 212 222 242 281 315 325 329 333 334 334 343 342 338 337 336 323 307 293 306 303 289 281 283 282 280 271 262 259 259 262
136 206 176 253 221 245 239 197 218 121 147 248 203 261 218 242 271 290 319 318 331 340 346 350 352 2 6 6 1 356 345 328 315 293 288 290 292 295 299 292 272 263 263 264
146 161 133 252 155 125 318 231 169 196 185 161 200 227 167 173 217 320 320 337 336 348 359 3 6 6 11 14 16 13 10 6 5 357 341 326 317 314 316 310 290 275 271 270
157 195 138 241 73 229 247 222 219 211 194 213 135 156 135 177 88 105 88 89 40 22 19 12 6 4 3 1 360 359 358 360 359 355 351 343 335 327 320 314 303 288 279 276
178 155 137 180 201 301 251 202 148 164 240 201 199 164 145 152 135 99 97 77 50 29 19 5 355 350 347 343 342 342 339 344 343 340 338 332 322 316 314 309 303 298 291 284
95 84 132 116 186 236 119 194 148 101 265 197 189 159 155 148 151 206 142 79 1 346 337 334 331 328 326 326 326 326 331 335 336 338 337 334 330 326 324 321 318 317 311 304
148 79 169 141 232 276 251 209 139 152 249 144 169 157 146 150 149 140 157 25 358 351 354 346 341 351 354 344 339 340 340 336 334 330 328 326 322 322 322 321 320 315 310 308
180 158 176 102 227 258 193 140 167 178 120 161 141 128 114 118 120 118 332 333 338 349 351 353 337 351 341 342 344 345 341 341 338 332 331 336 337 335 334 334 330 326 320 310
221 208 180 180 217 259 117 132 146 165 150 135 129 117 124 113 33 342 339 359 339 339 347 341 329 337 334 337 339 344 348 349 350 349 344 342 348 343 339 340 336 325 321 311
163 152 169 117 174 108 110 108 117 138 134 136 136 134 140 146 283 316 334 329 316 317 338 344 337 336 340 345 348 354 354 353 350 355 354 351 347 342 341 342 338 338 350 110
186 145 159 77 100 101 139 145 144 132 133 135 147 144 171 187 11 328 339 299 299 309 330 337 343 348 350 351 351 352 356 354 351 348 348 348 345 348 350 355 27 102 77 59
188 169 179 226 172 182 175 168 163 151 161 180 206 222 252 256 257 275 272 277 289 315 345 352 356 352 357 359 2 354 357 352 346 351 356 353 342 339 336 342 342 337 326 322